Overview Statistics Trail Chart Weather Telemetry Raw packets
 

This is the latest recevied weather packets stored in our database for station/object KD4EED. If no packets are shown the sender has not sent any weather packets the latest 10 day(s).

<< 55 56 57 58 59 60 61 >>
Time Temp. Humidity Pressure Rain* Wind** Luminosity Snow
1788297113 28.33° C 52% 1012.4 hPa - - 627 W/m² -
1788296808 28.33° C 50% 1012.4 hPa - - 628 W/m² -
1788296504 28.33° C 52% 1012.4 hPa - - 629 W/m² -
1788296200 28.33° C 51% 1012.6 hPa - - 633 W/m² -
1788295900 28.33° C 52% 1012.7 hPa - - 636 W/m² -
1788295595 28.33° C 52% 1012.5 hPa - - 634 W/m² -
1788295290 27.78° C 52% 1012.4 hPa - - 639 W/m² -
1788294985 27.78° C 52% 1012.8 hPa - - 640 W/m² -
1788294680 27.78° C 53% 1012.7 hPa - - 642 W/m² -
1788294380 28.33° C 52% 1012.7 hPa - - 638 W/m² -
1788294076 28.33° C 52% 1012.8 hPa - - 634 W/m² -
1788293772 28.33° C 52% 1012.8 hPa - - 641 W/m² -
1788293471 28.33° C 52% 1013 hPa - - 640 W/m² -
1788293170 27.78° C 53% 1013.1 hPa - - 634 W/m² -
1788292865 27.78° C 52% 1013 hPa - - 631 W/m² -
1788292582 27.78° C 53% 1013.1 hPa - - 633 W/m² -
1788292262 27.78° C 53% 1013 hPa - - 632 W/m² -
1788291958 28.33° C 52% 1013.1 hPa - - 633 W/m² -
1788291653 28.33° C 52% 1013.3 hPa - - 625 W/m² -
1788291348 27.78° C 53% 1013.4 hPa - - 618 W/m² -
1788291043 27.78° C 53% 1013.5 hPa - - 616 W/m² -
1788290738 27.78° C 53% 1013.5 hPa - - 609 W/m² -
1788290434 27.78° C 53% 1013.5 hPa - - 606 W/m² -
1788290130 27.78° C 55% 1013.5 hPa - - 595 W/m² -
1788289825 27.22° C 55% 1013.6 hPa - - 589 W/m² -

* Rain since midnight (hover to see other rain measurements)
** Current wind speed in m/s (hover to see current wind gust speed)